Regional Weather Roundup
Issued by NWS

Home | Current Version | Previous Version | Graphics & Text | Print | Product List | Glossary On
Versions: 1 2 3 4 5 6 7 8 9 10 11 12 13 14 15 16 17 18 19 20 21 22 23 24 25 26 27 28 29 30 31 32 33 34 35 36 37 38 39 40 41 42 43 44 45 46 47 48 49 50
000
ASUS43 KMKX 280011
RWRWI

WISCONSIN REGIONAL WEATHER ROUNDUP
NATIONAL WEATHER SERVICE MILWAUKEE/SULLIVAN WI
700 PM CDT FRI MAY 27 2016

NOTE: "FAIR" INDICATES FEW OR NO CLOUDS BELOW 12,000 FEET WITH NO
SIGNIFICANT WEATHER AND/OR OBSTRUCTIONS TO VISIBILITY.

WIZ001-002-006>008-014>016-023>028-280100-
NORTHWEST WISCONSIN

CITY           SKY/WX    TMP DP  RH WIND       PRES   REMARKS
SUPERIOR ARPT  DRIZZLE   49  48  99 NE5       29.84F
6HR MIN TEMP:  45; 6HR MAX TEMP:  50; 6HR PCP:  0.06;

ASHLAND        LGT RAIN  49  47  93 N9        29.85F FOG
6HR MIN TEMP:  48; 6HR MAX TEMP:  56; 6HR PCP:  0.08;

HAYWARD        LGT RAIN  57  54  89 N7        29.78F FOG
6HR MIN TEMP:  57; 6HR MAX TEMP:  68; 6HR PCP:  0.37;

SIREN          CLOUDY    62  60  93 NE7       29.77F
6HR MIN TEMP:  62; 6HR MAX TEMP:  66; 6HR PCP:  0.03;

CUMBERLAND     CLOUDY    61  59  94 NE9       29.76F
RICE LAKE      RAIN      62  60  93 N9        29.76F
6HR MIN TEMP:  62; 6HR MAX TEMP:  69; 6HR PCP:  0.97;

CHETEK         LGT RAIN  62  62  99 N6        29.75S
6HR MIN TEMP:  62; 6HR MAX TEMP:  69; 6HR PCP:  0.57;

LADYSMITH      LGT RAIN  67  64  93 E6        29.77S
6HR MIN TEMP:  65; 6HR MAX TEMP:  70; 6HR PCP:  0.15;

EAU CLAIRE     CLOUDY    69  67  93 S13       29.72R
6HR MIN TEMP:  66; 6HR MAX TEMP:  73; 6HR PCP:  0.28;

MENOMONIE      DRIZZLE   65  65  99 W5        29.74R
6HR MIN TEMP:  65; 6HR MAX TEMP:  71; 6HR PCP:  0.40;

NEW RICHMOND   CLOUDY    68  63  83 NW5       29.75
6HR MIN TEMP:  64; 6HR MAX TEMP:  68; 6HR PCP:  0.08;

OSCEOLA        CLOUDY    65  65 100 W5        29.78S
6HR MIN TEMP:  64; 6HR MAX TEMP:  67; 6HR PCP:  0.04;

$$

WIZ003>005-009-010-017-018-280100-
NORTH CENTRAL WISCONSIN

CITY           SKY/WX    TMP DP  RH WIND       PRES   REMARKS
MANITOWISH WTR NOT AVBL
ARBOR VITAE    CLOUDY    69  60  72 E8        29.82S
6HR MIN TEMP:  69; 6HR MAX TEMP:  72;

WOODRUFF       CLOUDY    69  60  72 E8        29.82S
6HR MIN TEMP:  69; 6HR MAX TEMP:  72;

RHINELANDER    CLOUDY    68  60  75 SE10      29.84R
6HR MIN TEMP:  68; 6HR MAX TEMP:  74; 6HR PCP: TRACE;

EAGLE RIVER      N/A     67  58  73 SE8       29.84S
LAND O LAKES   CLOUDY    68  58  70 SE12      29.85S
6HR MIN TEMP:  68; 6HR MAX TEMP:  74;

PHILLIPS       CLOUDY    67  62  84 E7        29.78F
6HR MIN TEMP:  64; 6HR MAX TEMP:  69; 6HR PCP:  0.03;

TOMAHAWK       CLOUDY    68  60  76 SE6       29.82S
6HR MIN TEMP:  67; 6HR MAX TEMP:  73;

MEDFORD        CLOUDY    69  64  85 SE8       29.78F
6HR MIN TEMP:  67; 6HR MAX TEMP:  73; 6HR PCP:  0.01;

MERRILL        RAIN      68  64  88 SE10      29.81F
$$

WIZ029-030-035-036-043>047-280100-
CENTRAL WISCONSIN

CITY           SKY/WX    TMP DP  RH WIND       PRES   REMARKS
WAUSAU         LGT RAIN  68  65  90 E10       29.78F FOG
6HR MIN TEMP:  68; 6HR MAX TEMP:  76; 6HR PCP:  0.12;

MOSINEE        RAIN      66  66 100 E9        29.80F FOG
MARSHFIELD     CLOUDY    69  65  86 E9        29.76F
6HR MIN TEMP:  69; 6HR MAX TEMP:  79; 6HR PCP:  0.01;

STEVENS POINT  LGT RAIN  66  65  99 N5        29.79F
6HR MIN TEMP:  65; 6HR MAX TEMP:  72; 6HR PCP:  0.38;

WAUPACA        HVY RAIN  71  71  99 E12       29.80R
6HR MIN TEMP:  71; 6HR MAX TEMP:  76; 6HR PCP:  0.02;

WAUTOMA        CLOUDY    67  65  93 E5        29.78F
6HR MIN TEMP:  67; 6HR MAX TEMP:  76; 6HR PCP:  0.79;

WISC RAPIDS    LGT RAIN  69  66  90 SE8       29.78F
6HR MIN TEMP:  68; 6HR MAX TEMP:  79; 6HR PCP:  0.47;

CAMP DOUGLAS   PTSUNNY   70 N/A N/A E5        29.75S
6HR MIN TEMP:  71; 6HR MAX TEMP:  76; 6HR PCP:  0.16;

$$

WIZ011>013-019>022-031-037>040-048>050-280100-
NORTHEAST WISCONSIN

CITY           SKY/WX    TMP DP  RH WIND       PRES   REMARKS
ANTIGO         LGT RAIN  64  64  98 SE14      29.83F
6HR MIN TEMP:  64; 6HR MAX TEMP:  69; 6HR PCP:  0.01;

SHAWANO        LGT RAIN  69  66  90 E9        29.82F
6HR MIN TEMP:  69; 6HR MAX TEMP:  72; 6HR PCP:  0.13;

OCONTO         CLOUDY   N/A N/A N/A E6        29.83F
                                      6HR PCP:  0.50;

STURGEON BAY   NOT AVBL
GREEN BAY      CLOUDY    68  66  93 E9        29.82S FOG
6HR MIN TEMP:  67; 6HR MAX TEMP:  71;

MANITOWOC      LGT RAIN  57  56  96 E5        29.86R FOG
6HR MIN TEMP:  56; 6HR MAX TEMP:  62; 6HR PCP:  0.10;

APPLETON       LGT RAIN  68  66  94 SE14      29.79S FOG
CLINTONVILLE   RAIN      68  64  88 E5        29.81S
OSHKOSH        HVY RAIN  68  65  90 S9        29.80S VSB 1
6HR MIN TEMP:  68; 6HR MAX TEMP:  74; 6HR PCP:  0.47;

$$

WIZ032>034-041-042-053>061-280100-
SOUTHWEST WISCONSIN

CITY           SKY/WX    TMP DP  RH WIND       PRES   REMARKS
LA CROSSE      LGT RAIN  71  67  87 S8        29.70F
6HR MIN TEMP:  71; 6HR MAX TEMP:  77; 6HR PCP:  0.12;

SPARTA         LGT RAIN  70  68  94 CALM      29.74F
6HR MIN TEMP:  70; 6HR MAX TEMP:  77; 6HR PCP:  0.01;

VIROQUA        CLOUDY    69  67  93 N3        29.74F
6HR MIN TEMP:  69; 6HR MAX TEMP:  77; 6HR PCP:  0.01;

BOSCOBEL       CLOUDY    71  66  84 SW3       29.72F
6HR MIN TEMP:  68; 6HR MAX TEMP:  82; 6HR PCP:  0.14;

PRAIRIE DU CHI MOSUNNY   68  66  95 S3        29.73R
6HR MIN TEMP:  66; 6HR MAX TEMP:  79; 6HR PCP:  0.23;

PLATTEVILLE    SUNNY     74  69  82 S9        29.75S
6HR MIN TEMP:  71; 6HR MAX TEMP:  77; 6HR PCP:  0.02;

$$

WIZ056-057-062-063-064-067-068-280100-
SOUTH CENTRAL WISCONSIN

CITY           SKY/WX    TMP DP  RH WIND       PRES   REMARKS
REEDSBURG      CLOUDY    72  68  88 SE3       29.75S
6HR MIN TEMP:  68; 6HR MAX TEMP:  77; 6HR PCP:  0.41;

BARABOO/DELLS  CLOUDY    72  65  80 SE7       29.76S
6HR MIN TEMP:  69; 6HR MAX TEMP:  76; 6HR PCP:  0.37;

LONE ROCK      CLOUDY    76  66  71 S12       29.74S
6HR MIN TEMP:  72; 6HR MAX TEMP:  78; 6HR PCP:  0.10;

MINERAL POINT  CLOUDY    73  68  83 S8        29.76F
MADISON        CLOUDY    74  65  73 S13       29.77R
6HR MIN TEMP:  72; 6HR MAX TEMP:  79; 6HR PCP: TRACE;

MIDDLETON      CLOUDY    74  66  75 S8        29.77S
6HR MIN TEMP:  70; 6HR MAX TEMP:  79; 6HR PCP:  0.23;

WATERTOWN      CLOUDY    69  69 100 S6        29.80R
6HR MIN TEMP:  67; 6HR MAX TEMP:  80; 6HR PCP:  0.17;

MONROE         CLOUDY    72  66  83 S9        29.78S
JANESVILLE     MOSUNNY   75  66  73 S12       29.78S
$$

WIZ051-052-058>065-066-070>072-280100-
SOUTHEAST WISCONSIN

CITY           SKY/WX    TMP DP  RH WIND       PRES   REMARKS
MILWAUKEE      CLOUDY    69  66  90 S10       29.82F
6HR MIN TEMP:  67; 6HR MAX TEMP:  79; 6HR PCP:  0.14;

WAUKESHA       PTSUNNY   70  64  83 SE10      29.83S
MILWAUKEE/TIMM PTSUNNY   70  64  83 S8        29.83F
RACINE         CLOUDY    68  64  87 S12       29.85S
6HR MIN TEMP:  67; 6HR MAX TEMP:  76; 6HR PCP: TRACE;

BURLINGTON     CLOUDY    71  66  85 SE7       29.82S HAZE
6HR MIN TEMP:  69; 6HR MAX TEMP:  82; 6HR PCP:  0.04;

KENOSHA        CLOUDY    70  67  90 SE8       29.83S
6HR MIN TEMP:  69; 6HR MAX TEMP:  80; 6HR PCP:  0.03;

FOND DU LAC    RAIN      68  66  93 S8        29.81R FOG
6HR MIN TEMP:  68; 6HR MAX TEMP:  75; 6HR PCP:  0.71;

SHEBOYGAN      HVY RAIN  65  62  90 S9        29.84S FOG
6HR MIN TEMP:  64; 6HR MAX TEMP:  71; 6HR PCP:  0.32;

WEST BEND      RAIN      66  64  94 SE8       29.82S
JUNEAU         CLOUDY    69  66  91 SE9       29.81S
6HR MIN TEMP:  67; 6HR MAX TEMP:  77; 6HR PCP:  0.36;

$$

LSZ147-162-280100-
LAKE SUPERIOR

STATION/POSITION TIME  TEMP    WIND        PRES    WAVE
                       AIR SEA DIR/SP/G            HT/PER
                 (UTC) (F)     (DEG/KT/KT) (MB)    (FT/S)
W MID LAKE BUOY  2350   40 38   80/ 12/ 14 1011.7F   1/ 3
DEVILS ISLAND    0000   44      90/ 10/ 11 1011.6F
SAXON HARBOR     2300   45      70/  1/  5 1010.8
$$

LMZ867-665-643>646-280100-
LAKE MICHIGAN

STATION/POSITION TIME  TEMP    WIND        PRES    WAVE
                       AIR SEA DIR/SP/G            HT/PER
                 (UTC) (F)     (DEG/KT/KT) (MB)    (FT/S)
CHAMBERS ISLAND  2300   64     110/  3/  7 1011.5
N MID LAKE BUOY  2350   50 47  110/  8/ 10 1012.0F   0
NORTHPORT PIER   2300   54     160/  5/  9 1012.2S
SISTER BAY       2320 C1F1C2F2C3F3C4F4C5F5C6F6C7F7C8M1C9M2Ca!



USA.gov is the U.S. government's official web portal to all federal, state and local government web resources and services.